Rockford, IL

3:44 PM CDT on March 27, 2017 (GMT -0500)
Greater Rockford

Weather History for KRFD - March, 2012

Change the Weather History Date:

Tuesday, March 6, 2012

  Actual Average Record
Temperature  
Mean Temperature 49 °F 33 °F  
Max Temperature 67 °F 42 °F 70 °F (1983)
Min Temperature 30 °F 24 °F -7 °F (1960)
Degree Days  
Heating Degree Days 16 32  
Month to date heating degree days 187 198  
Since 1 July heating degree days 4561 5200  
Cooling Degree Days 0 0  
Month to date cooling degree days 0 0  
Year to date cooling degree days 0 0  
Moisture  
Dew Point 33 °F    
Average Humidity 56    
Maximum Humidity 78    
Minimum Humidity 34    
Precipitation  
Precipitation 0.00 in 0.07 in 1.15 in (1973)
Month to date precipitation 0.44 0.39  
Year to date precipitation 2.98 3.17  
Snow  
Snow 0.00 in 0.20 in 5.50 in (1975)
Month to date snowfall 3.0 1.2  
Since 1 July snowfall 24.3 32.2  
Snow Depth 0.00 in    
Sea Level Pressure  
Sea Level Pressure 29.96 in    
Wind  
Wind Speed 18 mph (South)    
Max Wind Speed 32 mph    
Max Gust Speed 43 mph    
Visibility 10 miles    
Events      
T = Trace of Precipitation, MM = Missing Value Source: NWS Daily Summary

Daily Weather History Graph

Daily Weather History Graph

Search for Another Location

Airport or City:

Trip Planner

Search our weather history database for the weather conditions in past years. The results will help you decide how hot, cold, wet, or windy it might be!

Date:

Astronomy

Mar. 06, 2012 Rise Set
Actual Time 6:22 AM CST 5:53 PM CST
Civil Twilight 5:54 AM CST 6:21 PM CST
Nautical Twilight 5:22 AM CST 6:53 PM CST
Astronomical Twilight 4:49 AM CST 7:26 PM CST
Moon 4:18 PM CST (3/6) 4:59 AM CST (3/6)
Length of Visible Light 12h 26m
Length of Day
11h 30m
Waxing Gibbous, 96% of the Moon is Illuminated
Mar 6
Waxing Gibbous
Mar 8
Full
Mar 14
Last Quarter
Mar 22
New
Mar 30
First Quarter

Hourly Weather History & Observations

Time (CST) Temp. Windchill Dew Point Humidity Pressure Visibility Wind Dir Wind Speed Gust Speed Precip Events Conditions
12:54 AM 30.9 °F 19.8 °F 24.1 °F 76% 30.18 in 10.0 mi South 16.1 mph - N/A   Clear
1:54 AM 30.9 °F 20.2 °F 25.0 °F 79% 30.16 in 10.0 mi South 15.0 mph - N/A   Clear
2:54 AM 30.9 °F 20.7 °F 25.0 °F 79% 30.13 in 10.0 mi South 13.8 mph - N/A   Clear
3:54 AM 32.0 °F 21.2 °F 25.0 °F 75% 30.10 in 10.0 mi South 16.1 mph - N/A   Partly Cloudy
4:54 AM 33.1 °F 21.5 °F 25.0 °F 72% 30.08 in 10.0 mi South 19.6 mph - N/A   Mostly Cloudy
5:54 AM 32.0 °F 20.5 °F 25.0 °F 75% 30.06 in 10.0 mi South 18.4 mph - N/A   Partly Cloudy
6:54 AM 33.1 °F 21.5 °F 25.0 °F 72% 30.03 in 10.0 mi South 19.6 mph - N/A   Scattered Clouds
7:54 AM 35.6 °F 25.2 °F 26.6 °F 70% 29.99 in 10.0 mi South 18.4 mph - N/A   Scattered Clouds
8:54 AM 37.9 °F 29.2 °F 28.0 °F 68% 29.99 in 10.0 mi South 15.0 mph - N/A   Clear
9:54 AM 42.1 °F 34.2 °F 30.0 °F 62% 29.98 in 10.0 mi South 16.1 mph - N/A   Clear
10:54 AM 46.9 °F - 34.0 °F 61% 29.96 in 10.0 mi South 17.3 mph - N/A   Clear
11:54 AM 55.0 °F - 41.0 °F 59% 29.92 in 10.0 mi South 18.4 mph - N/A   Clear
12:54 PM 61.0 °F - 41.0 °F 48% 29.89 in 10.0 mi SSW 26.5 mph 33.4 mph N/A   Clear
1:54 PM 64.9 °F - 41.0 °F 42% 29.85 in 10.0 mi SSW 26.5 mph 35.7 mph N/A   Clear
2:54 PM 66.0 °F - 41.0 °F 40% 29.83 in 10.0 mi SSW 24.2 mph 34.5 mph N/A   Clear
3:54 PM 66.9 °F - 37.9 °F 34% 29.83 in 10.0 mi SSW 24.2 mph 34.5 mph N/A   Clear
4:54 PM 64.9 °F - 39.0 °F 39% 29.83 in 10.0 mi SSW 17.3 mph - N/A   Partly Cloudy
5:54 PM 60.1 °F - 37.0 °F 42% 29.85 in 10.0 mi SSW 15.0 mph - N/A   Mostly Cloudy
6:54 PM 55.9 °F - 39.0 °F 53% 29.86 in 10.0 mi South 13.8 mph - N/A   Mostly Cloudy
7:54 PM 54.0 °F - 39.0 °F 57% 29.88 in 10.0 mi South 13.8 mph - N/A   Mostly Cloudy
8:54 PM 53.6 °F - 37.4 °F 54% 29.89 in 10.0 mi South 16.1 mph - N/A   Mostly Cloudy
9:54 PM 50.0 °F - 37.9 °F 63% 29.93 in 10.0 mi South 13.8 mph - N/A   Mostly Cloudy
10:54 PM 50.0 °F - 39.0 °F 66% 29.93 in 10.0 mi South 12.7 mph - N/A   Mostly Cloudy
11:54 PM 48.9 °F - 39.0 °F 69% 29.93 in 10.0 mi South 12.7 mph - N/A   Overcast